Home   Weather   Gaza   Past weeks

Flag for Palestinian Territories Past Weather in Gaza, Gaza Strip, Palestinian Territories — Yesterday and Last 2 Weeks

Now
68 °F

Passing clouds.


Feels Like: 68 °F
Forecast: 58 / 67 °F
Wind: 9 mph from West

Location: Ben Gurion International Airport

Current Time: Dec 8, 2016 at 2:11:47 pm

Latest Report: Dec 8, 2016 at 1:50 pm


Visibility: N/A

Pressure: 30.18 "Hg

Humidity: 49%

Dew Point: 48 °F

Location of GazaLocation

Past Weather in Gaza — Graph

°F

Gaza Temperature Yesterday

Maximum temperature yesterday: 70 °F (at 11:20 am)
Minimum temperature yesterday: 50 °F (at 4:20 am)
Average temperature yesterday: 60 °F

High & Low Weather Summary for the Past Weeks

 TemperatureHumidityPressure
High77 °F (Nov 28, 12:50 pm)94% (Dec 2, 12:20 am)30.30 "Hg (Dec 2, 12:20 am)
Low39 °F (Nov 26, 4:20 am)4% (Nov 24, 2:20 pm)29.74 "Hg (Dec 1, 1:50 pm)
Average61 °F48%30.07 "Hg
* Reported Nov 23 12:20 pm — Dec 8 12:50 pm, Gaza, Weather by CustomWeather, © 2016

Note: Actual official high and low records may vary slightly from our data, if they occured in-between our weather recording intervals... More about our weather records

Advertising

Gaza Weather History for the Previous 24 Hours

Scroll right to see more
 ConditionsComfort  
Time TempWeatherWind HumidityBarometerVisibility
12:50 pm
Thu, Dec 8
68 °FSunny.9 mph46%30.18 "Hg10 mi
12:20 pm68 °FSunny.9 mph46%30.21 "Hg10 mi
11:50 am70 °FSunny.6 mph43%30.21 "Hg10 mi
11:20 am68 °FSunny.5 mph46%30.21 "Hg10 mi
10:50 am68 °FSunny.6 mph46%30.24 "Hg10 mi
10:20 am68 °FSunny.1 mph43%30.24 "Hg10 mi
9:50 am66 °FSunny.1 mph46%30.24 "Hg10 mi
9:20 am63 °FSunny.2 mph49%30.27 "Hg10 mi
8:50 am59 °FSunny.2 mph55%30.27 "Hg10 mi
8:20 am55 °FSunny.3 mph59%30.27 "Hg10 mi
7:50 am54 °FSunny.3 mph63%30.27 "Hg10 mi
7:20 am52 °FSunny.2 mph72%30.27 "Hg10 mi
6:50 am48 °FSunny.1 mph82%30.27 "Hg10 mi
6:20 am48 °FClear.3 mph82%30.24 "Hg10 mi
5:50 am48 °FClear.1 mph82%30.24 "Hg10 mi
5:20 am48 °FClear.3 mph87%30.24 "Hg10 mi
4:50 am48 °FClear.1 mph87%30.24 "Hg10 mi
4:20 am48 °FClear.1 mph87%30.24 "Hg10 mi
3:20 am48 °FClear.2 mph87%30.24 "Hg10 mi
2:50 am50 °FClear.2 mph82%30.21 "Hg10 mi
2:20 am52 °FClear.2 mph82%30.24 "Hg10 mi
1:50 am52 °FClear.2 mph82%30.24 "Hg10 mi
1:20 am54 °FClear.2 mph77%30.24 "Hg10 mi
12:50 am54 °FClear.2 mph77%30.21 "Hg10 mi
12:20 am54 °FClear.2 mph77%30.21 "Hg10 mi
11:50 pm
Wed, Dec 7
54 °FClear.3 mph82%30.21 "Hg10 mi
11:20 pm54 °FClear.3 mph82%30.24 "Hg10 mi
10:50 pm54 °FClear.3 mph82%30.24 "Hg10 mi
10:20 pm55 °FClear.1 mph77%30.24 "Hg10 mi
9:50 pm55 °FClear.2 mph77%30.24 "Hg10 mi
9:20 pm55 °FClear.3 mph77%30.24 "Hg10 mi
8:50 pm57 °FClear.5 mph72%30.24 "Hg10 mi
8:20 pm59 °FClear.5 mph63%30.24 "Hg10 mi
7:50 pm61 °FClear.6 mph59%30.24 "Hg10 mi
7:20 pm61 °FClear.5 mph59%30.21 "Hg10 mi
6:50 pm63 °FClear.6 mph56%30.21 "Hg10 mi
6:20 pm63 °FClear.5 mph56%30.21 "Hg10 mi
5:50 pm64 °FClear.7 mph52%30.21 "Hg10 mi
5:20 pm64 °FClear.7 mph52%30.18 "Hg10 mi
4:50 pm66 °FClear.8 mph52%30.18 "Hg10 mi
4:20 pm66 °FSunny.10 mph52%30.18 "Hg10 mi
3:50 pm68 °FSunny.12 mph46%30.18 "Hg10 mi
3:20 pm68 °FSunny.13 mph46%30.18 "Hg10 mi
2:50 pm70 °FSunny.12 mph43%30.15 "Hg10 mi
2:20 pm70 °FSunny.12 mph40%30.15 "Hg10 mi
Weather by CustomWeather, © 2016

See weather overviewHow to use our weather pages